Lake Hensley Weather Center

Moon Phase Calendar



Lake Hensley Water Level
Online Cameras

 


      

Current Conditions in Madera
6/14/2021 10:45:19 AM

82°F
Feels Like 82
Clear
Humidity
48%
Pressure
29.97"
Wind
7.6 mph (W)
Dew Point
60°F
UV Index
8/10 (Very High)
Visibility
6 mi

Hourly Forecast

Date & Time Mon, Jun 14
10:00 AM
Mon, Jun 14
11:00 AM
Mon, Jun 14
12:00 PM
Mon, Jun 14
1:00 PM
Mon, Jun 14
2:00 PM
Mon, Jun 14
3:00 PM
Mon, Jun 14
4:00 PM
Mon, Jun 14
5:00 PM
Mon, Jun 14
6:00 PM
Mon, Jun 14
7:00 PM
Mon, Jun 14
8:00 PM
Mon, Jun 14
9:00 PM
Mon, Jun 14
10:00 PM
Mon, Jun 14
11:00 PM
Tue, Jun 15
12:00 AM
Tue, Jun 15
1:00 AM
Tue, Jun 15
2:00 AM
Tue, Jun 15
3:00 AM
Tue, Jun 15
4:00 AM
Tue, Jun 15
5:00 AM
Tue, Jun 15
6:00 AM
Tue, Jun 15
7:00 AM
Tue, Jun 15
8:00 AM
Tue, Jun 15
9:00 AM
Tue, Jun 15
10:00 AM
Tue, Jun 15
11:00 AM
Tue, Jun 15
12:00 PM
Tue, Jun 15
1:00 PM
Tue, Jun 15
2:00 PM
Tue, Jun 15
3:00 PM
Tue, Jun 15
4:00 PM
Tue, Jun 15
5:00 PM
Tue, Jun 15
6:00 PM
Tue, Jun 15
7:00 PM
Tue, Jun 15
8:00 PM
Tue, Jun 15
9:00 PM
Tue, Jun 15
10:00 PM
Tue, Jun 15
11:00 PM
Wed, Jun 16
12:00 AM
Wed, Jun 16
1:00 AM
Wed, Jun 16
2:00 AM
Wed, Jun 16
3:00 AM
Wed, Jun 16
4:00 AM
Wed, Jun 16
5:00 AM
Wed, Jun 16
6:00 AM
Wed, Jun 16
7:00 AM
Wed, Jun 16
8:00 AM
Wed, Jun 16
9:00 AM
Condition
Clear

Clear

Clear

Clear

Clear

Clear

Clear

Clear

Clear

Clear

Clear

Clear

Clear

Clear

Clear

Clear

Clear

Clear

Clear

Clear

Clear

Clear

Clear

Clear

Clear

Clear

Clear

Clear

Clear

Clear

Clear

Clear

Clear

Clear

Clouds

Clouds

Clouds

Clouds

Clouds

Clouds

Clouds

Clouds

Clouds

Clouds

Clouds

Clouds

Clouds

Clouds
Temperature 81°F82°F83°F85°F87°F90°F93°F93°F92°F90°F80°F73°F70°F68°F66°F65°F64°F62°F61°F60°F59°F64°F70°F75°F79°F83°F86°F90°F92°F94°F95°F95°F94°F92°F85°F79°F75°F72°F69°F68°F67°F66°F65°F65°F65°F70°F75°F80°F
Feels Like 82°F82°F83°F84°F86°F88°F90°F90°F89°F86°F79°F72°F68°F66°F64°F63°F62°F61°F59°F58°F58°F62°F68°F73°F79°F81°F83°F86°F88°F89°F90°F90°F89°F87°F82°F79°F73°F70°F67°F65°F65°F64°F63°F62°F63°F68°F74°F79°F
Cloudiness 0%0%0%0%0%0%0%0%0%0%0%0%0%0%0%0%0%0%0%0%0%0%0%0%0%0%0%0%0%0%0%0%0%2%28%46%57%57%48%53%67%75%76%78%87%94%96%95%
Visibility 6 mi6 mi6 mi6 mi6 mi6 mi6 mi6 mi6 mi6 mi6 mi6 mi6 mi6 mi6 mi6 mi6 mi6 mi6 mi6 mi6 mi6 mi6 mi6 mi6 mi6 mi6 mi6 mi6 mi6 mi6 mi6 mi6 mi6 mi6 mi6 mi6 mi6 mi6 mi6 mi6 mi6 mi6 mi6 mi6 mi6 mi6 mi6 mi
Precipitation 0%0%0%0%0%0%0%0%0%0%0%0%0%0%0%0%0%0%0%0%0%0%0%0%0%0%0%0%0%0%0%0%0%0%0%0%0%0%0%0%0%0%0%0%0%0%0%0%
Humidity 46%48%45%40%36%30%24%23%23%23%30%34%37%40%43%44%46%49%52%55%56%48%39%31%25%21%18%16%14%13%12%11%11%10%11%13%17%22%26%29%29%30%31%31%31%28%23%19%
Dew Point 59°F60°F59°F58°F57°F55°F51°F49°F48°F47°F46°F42°F42°F42°F42°F42°F42°F42°F42°F43°F43°F43°F43°F41°F40°F38°F37°F37°F36°F36°F35°F33°F30°F27°F24°F24°F27°F30°F32°F33°F33°F33°F33°F32°F32°F34°F33°F34°F
Pressure 29.97"29.97"29.97"29.97"29.94"29.91"29.88"29.88"29.88"29.88"29.91"29.94"29.97"29.97"29.97"29.97"29.97"30"30"30"30.03"30.06"30.06"30.06"30.03"30.03"30.03"30"29.97"29.94"29.91"29.91"29.88"29.88"29.91"29.91"29.91"29.91"29.91"29.91"29.91"29.91"29.91"29.91"29.94"29.94"29.94"29.94"
Wind Speed 6.1 mph7.6 mph7.7 mph8.4 mph9.4 mph9.1 mph9.6 mph10 mph10.2 mph12.8 mph17.2 mph13.5 mph11.2 mph10 mph8.9 mph8.8 mph9 mph8.6 mph7 mph5 mph4.5 mph4.7 mph5.6 mph6.8 mph7.3 mph8.3 mph9.2 mph9.4 mph10 mph10.8 mph11 mph12.2 mph12 mph11.6 mph10.5 mph7.8 mph7.9 mph6.7 mph4.9 mph4.4 mph4.4 mph3.6 mph3.6 mph3.9 mph3.5 mph2.6 mph3.2 mph4.5 mph
Wind
Direction
275°
W
278°
W
281°
W
281°
W
280°
W
280°
W
281°
W
284°
WNW
288°
WNW
290°
WNW
301°
WNW
315°
NW
319°
NW
319°
NW
316°
NW
316°
NW
313°
NW
314°
NW
319°
NW
317°
NW
315°
NW
311°
NW
302°
WNW
296°
WNW
292°
WNW
289°
WNW
288°
WNW
288°
WNW
289°
WNW
294°
WNW
294°
WNW
299°
WNW
298°
WNW
297°
WNW
305°
NW
320°
NW
328°
NNW
326°
NW
330°
NNW
341°
NNW
343°
NNW
335°
NNW
341°
NNW
343°
NNW
338°
NNW
312°
NW
281°
W
267°
W

Daily Forecast

Date High Low Precip. Humidity
Today
Jun 14

Clear
93 °F
62 °F
0%
45%
Tuesday
Jun 15

Clear
95 °F
59 °F
0%
16%
Wednesday
Jun 16

Clouds
104 °F
65 °F
0%
10%
Thursday
Jun 17

Clouds
111 °F
74 °F
0%
6%
Friday
Jun 18

Clear
112 °F
76 °F
12%
6%
Saturday
Jun 19

Clear
110 °F
73 °F
0%
7%
Sunday
Jun 20

Clear
105 °F
68 °F
0%
9%
Monday
Jun 21

Clear
102 °F
64 °F
0%
14%
Tuesday
Jun 22

Clear
95 °F
60 °F
8%
22%
Wednesday
Jun 23

Clear
93 °F
58 °F
9%
25%
Thursday
Jun 24

Clear
97 °F
60 °F
1%
20%
Friday
Jun 25

Clear
102 °F
63 °F
0%
13%
Saturday
Jun 26

Clouds
103 °F
67 °F
0%
12%
Sunday
Jun 27

Clouds
95 °F
64 °F
0%
17%
Monday
Jun 28

Clouds
91 °F
65 °F
0%
20%
Tuesday
Jun 29

Clouds
91 °F
66 °F
25%
23%

Temperature 8-14 Day Outlook



Precipitation 8-14 Day Outlook




Quick Links
Lake Hensley News
Lake Hensley Photos
Lake Hensley Videos




About Us
Contact Us
Site Map
Search Site
Advertise With Us
   
LakeHensley.LakesOnline.com
THE LAKE HENSLEY WEBSITE

Copyright 2021, Lakes Online
Privacy    |    Legal